[Date Prev][Date Next][Thread Prev][Thread Next] - [Date Index][Thread Index][Author Index]

2 Line ISS Keps 12-30



ISS
1 25544U 98067A   03364.19839846  .00025788  00000-0  25021-3 0  9470
2 25544  51.6299 110.5954 0006375 317.9259 119.9543 15.66147960291656


----
Via the sarex mailing list at AMSAT.ORG courtesy of AMSAT-NA.
To unsubscribe, send "unsubscribe sarex" to Majordomo@amsat.org



AMSAT Top AMSAT Home